User: anonymous   Login
Location: Caltech
(34.1382°N, 118.1253°W)
Time: 00:32:47
(UTC-07:00)
Language:

Cosmos 2360 Rocket - Orbit

View from above orbital plane
View from above orbital plane
View from above satellite
View from above satellite

Ground track
Ground track

The orbit data is extracted from the following two-line orbital elements,

1 25407U 98045B   17290.17108021 -.00000274 +00000-0 -11513-3 0  9992
2 25407 071.0100 145.0883 0007391 003.3287 356.7884 14.15767791993179
Epoch (UTC): 17 October 2017 04:06:21
Eccentricity: 0.0007391
inclination: 71.0100°
perigee height: 834 km
apogee height: 845 km
right ascension of ascending node: 145.0883°
argument of perigee: 3.3287°
revolutions per day: 14.15767791
mean anomaly at epoch: 356.7884°
orbit number at epoch: 99317

The dashed part of the orbit path shows where the satellite is in the earth's shadow,  

DLR